Flag for U.S.A. Weather past 2 weeks in Barrow, Alaska, U.S.A.

Now
35 °F

Low clouds.


Feels Like: 28 °F
Forecast: 35 / 38 °F
Wind: 9 mph from North

Location: Post Rogers Memorial Airport

Current Time: Jul 28, 2015 at 11:06:40 PM

Latest Report: Jul 28, 2015 at 9:53 PM


Visibility: 10 mi

Pressure: 30.02 "Hg

Humidity: 92%

Dew point: 33 °F

Location of BarrowLocation

Historic Weather in Barrow — Graph

°F

Barrow temperature yesterday

Maximum temperature yesterday: 37 °F (at 3:53 PM)
Minimum temperature yesterday: 35 °F (at 12:53 AM)
Average temperature yesterday: 36 °F

Past Weeks' High & Low Weather Summary

 TemperatureHumidityPressure
High50 °F (Jul 21, 2:53 PM)100% (Jul 15, 3:53 AM)30.16 "Hg (Jul 15, 3:53 AM)
Low32 °F (Jul 24, 1:53 AM)68% (Jul 14, 12:53 AM)29.59 "Hg (Jul 17, 3:53 PM)
Average38 °F93%29.90 "Hg
* Reported Jul 13 9:53 PM — Jul 28 9:53 PM, Barrow, Weather by CustomWeather, © 2015

Note: Actual official high and low records may vary slightly from our data, if they occured in-between our weather recording intervals... More about our weather records

Advertising

Barrow weather history for previous 24 hours

 ConditionsComfort  
Time TempWeatherWind HumidityBarometerVisibility
9:53 PM
Tue, Jul 28
35 °FLow clouds.9 mph92%30.02 "Hg10 mi
8:53 PM35 °FFog.8 mph96%30.01 "Hg1 mi
7:53 PM35 °FFog.8 mph96%30.01 "Hg2 mi
6:56 PM36 °FFog.9 mph92%30.01 "Hg1 mi
5:53 PM37 °FFog.9 mph89%30.01 "Hg6 mi
4:53 PM37 °FLow clouds.9 mph89%30.00 "Hg10 mi
3:53 PM36 °FLow clouds.10 mph92%30.00 "Hg10 mi
2:53 PM37 °FLow clouds.12 mph86%30.00 "Hg10 mi
1:53 PM36 °FLow clouds.9 mph92%29.99 "Hg10 mi
1:00 PM36 °FFog.8 mph93%29.99 "Hg1 mi
12:01 PM36 °FLight rain. Low clouds.9 mph93%29.99 "Hg1 mi
10:53 AM33 °FLow clouds.6 mph96%29.98 "Hg10 mi
9:53 AM32 °FIce fog.9 mph96%29.99 "Hg6 mi
8:53 AM32 °FFog.9 mph96%29.98 "Hg0 mi
8:00 AM32 °FIce fog.8 mph100%29.97 "Hg1 mi
6:53 AM33 °FFog.7 mph100%29.96 "Hg1 mi
5:59 AM34 °FFog.9 mph100%29.96 "Hg1 mi
5:00 AM33 °FFog.9 mph100%29.96 "Hg1 mi
3:53 AM34 °FLow clouds.8 mph92%29.96 "Hg10 mi
2:53 AM34 °FLow clouds.9 mph97%29.96 "Hg10 mi
1:53 AM34 °FMostly cloudy.10 mph92%29.96 "Hg10 mi
12:53 AM34 °FLow clouds.10 mph92%29.94 "Hg10 mi
11:53 PM
Mon, Jul 27
35 °FMostly cloudy.10 mph88%29.93 "Hg10 mi
Weather by CustomWeather, © 2015

See weather overviewHow to use our weather pages